LaGuardia Airport

Airport
ICAO code: 
KLGA
Summary
ICAO Region: 
NAM
Territory: 
Location: 
East Elmhurst, Queens, New York,
Coordinates: 
Aerial View: 
40° 46' 37.916" N, 73° 52' 21.349" W
Airport BS: 
Bird Strike
Airport RE: 
Engineered Materials Arresting System
Metar
Observation
KLGA 272051Z 09003KT 10SM -RA FEW038 SCT050 BKN120 OVC250 23/18 A2991 RMK AO2 RAB22 SLP129 P0000 60043 T02330183 58003
Station
New York, La Guardia Airport
Date/Time
2022-06-27 20:51:00
Wind direction
90°
Wind speed
03 kts
Lowest cloud amount
few clouds
Temperature
23.3°C
Dew point
18.3°C
Humidity
73%
Weather condition
light rain

Description

Airport serving the city of New York, NY, USA.

Climatology

Humid “subtropical” climate (Köppen climate classification Cfa) - characterized by hot, humid summers and cool winters. Significant amounts of precipitation occur in all seasons in most areas. Winter rainfall (and sometimes snowfall) is associated with large storms that the westerlies steer from west to east. Most summer rainfall occurs during thunderstorms.

Runways

Designator Length Width Surface Rops
4/22 2134 46 ASP Yes/Yes
13/31 2134 46 ASP Yes/Yes

SKYbrary Partners:

Safety knowledge contributed by: